QPF
0.00 0.00 0.00 0.00 0.00 0.00 0.00 0.00 0.00 0.00 0.00 0.00 0.00 0.00 0.00 0.00 0.00 0.00 0.00 0.00 0.00 0.00 0.00 0.00 0.00 0.00 0.00 0.00 0.00 0.00 0.00 0.00 0.00 0.00 0.00 0.00 0.00 0.00 0.00 0.00 0.00 0.00 0.00 0.00 0.00
0.00 0.00 0.00 0.00 0.00 0.00 0.00 0.00 0.00 0.00 0.00 0.00 0.00 0.00 0.00 0.00 0.00 0.00 0.00 0.00 0.00 0.00 0.00 0.00 0.00 0.00 0.00 0.00 0.00 0.00 0.00 0.00 0.00 0.00 0.00 0.00 0.00 0.00 0.00 0.00 0.00 0.00 0.00 0.00 0.00
0.00 0.00 0.00 0.00 0.00 0.00 0.00 0.00 0.00 0.00 0.00 0.00 0.00 0.00 0.00 0.00 0.00 0.00 0.00 0.00 0.00 0.00 0.00 0.00 0.00 0.00 0.00 0.00 0.00 0.00 0.00 0.00 0.00 0.00 0.00 0.00 0.00 0.00 0.00 0.00 0.00 0.00 0.00 0.00 0.00
0.00 0.00 0.00 0.00 0.00 0.00 0.00 0.00 0.00 0.00 0.00 0.00 0.00 0.00 0.00 0.00 0.00 0.00 0.00 0.00 0.00 0.00 0.00 0.00 0.00 0.00 0.00 0.00 0.00 0.00 0.00 0.00 0.00 0.00 0.00 0.00 0.00 0.00 0.00 0.00 0.00 0.00 0.00 0.00 0.00
0.00 0.00 0.00 0.00 0.00 0.00 0.00 0.00 0.00 0.00 0.00 0.00 0.00 0.00 0.00 0.00 0.00 0.00 0.00 0.00 0.00 0.00 0.00 0.00 0.00 0.00 0.00 0.00 0.00 0.00 0.00 0.00 0.00 0.00 0.00 0.00 0.00 0.00 0.00 0.00 0.00 0.00 0.00 0.00 0.00
0.00 0.00 0.00 0.00 0.00 0.00 0.00 0.00 0.00 0.00 0.00 0.00 0.00 0.00 0.00 0.00 0.00 0.00 0.00 0.00 0.00 0.00 0.00 0.00 0.00 0.00 0.00 0.00 0.00 0.00 0.00 0.00 0.00 0.00 0.00 0.00 0.00 0.00 0.00 0.00 0.00 0.00 0.00 0.00 0.00
0.00 0.00 0.00 0.00 0.00 0.00 0.00 0.00 0.00 0.00 0.00 0.00 0.00 0.00 0.00 0.00 0.00 0.00 0.00 0.00 0.00 0.00 0.00 0.00 0.00 0.00 0.00 0.00 0.00 0.00 0.00 0.00 0.00 0.00 0.00 0.00 0.00 0.00 0.00 0.00 0.00 0.00 0.00 0.00 0.00
0.00 0.00 0.00 0.00 0.00 0.00 0.00 0.00 0.00 0.00 0.00 0.00 0.00 0.00 0.00 0.00 0.00 0.00 0.00 0.00 0.00 0.00 0.00 0.00 0.00 0.00 0.00 0.00 0.00 0.00 0.00 0.00 0.00 0.00 0.00 0.00 0.00 0.00 0.00 0.00 0.00 0.00 0.00 0.00 0.00
0.00 0.00 0.00 0.00 0.00 0.00 0.00 0.00 0.00 0.00 0.00 0.00 0.00 0.00 0.00 0.00 0.00 0.00 0.00 0.00 0.00 0.00 0.00 0.00 0.00 0.00 0.00 0.00 0.00 0.00 0.00 0.00 0.00 0.00 0.00 0.00 0.00 0.00 0.00 0.00 0.00 0.00 0.00 0.00 0.00
0.00 0.00 0.00 0.00 0.00 0.00 0.00 0.00 0.00 0.00 0.00 0.00 0.00 0.00 0.00 0.00 0.00 0.00 0.00 0.00 0.00 0.00 0.00 0.00 0.00 0.00 0.00 0.00 0.00 0.00 0.00 0.00 0.00 0.00 0.00 0.00 0.00 0.00 0.00 0.00 0.00 0.00 0.00 0.00 0.00
0.00 0.00 0.00 0.00 0.00 0.00 0.00 0.00 0.00 0.00 0.00 0.00 0.00 0.00 0.00 0.00 0.00 0.00 0.00 0.00 0.00 0.00 0.00 0.00 0.00 0.00 0.00 0.00 0.00 0.00 0.00 0.00 0.00 0.00 0.00 0.00 0.00 0.00 0.00 0.00 0.00 0.00 0.00 0.00 0.00
0.00 0.00 0.00 0.00 0.00 0.00 0.00 0.00 0.00 0.00 0.00 0.00 0.00 0.00 0.00 0.00 0.00 0.00 0.00 0.00 0.00 0.00 0.00 0.00 0.00 0.00 0.00 0.00 0.00 0.00 0.00 0.00 0.00 0.00 0.00 0.00 0.00 0.00 0.00 0.00 0.00 0.00 0.00 0.00 0.00
0.00 0.00 0.00 0.00 0.00 0.00 0.00 0.00 0.00 0.00 0.00 0.00 0.00 0.00 0.00 0.00 0.00 0.00 0.00 0.00 0.00 0.00 0.00 0.00 0.00 0.00 0.00 0.00 0.00 0.00 0.00 0.00 0.00 0.00 0.00 0.00 0.00 0.00 0.00 0.00 0.00 0.00 0.00 0.00 0.00
0.00 0.00 0.00 0.00 0.00 0.00 0.00 0.00 0.00 0.00 0.00 0.00 0.00 0.00 0.00 0.00 0.00 0.00 0.00 0.00 0.00 0.00 0.00 0.00 0.00 0.00 0.00 0.00 0.00 0.00 0.00 0.00 0.00 0.00 0.00 0.00 0.00 0.00 0.00 0.00 0.00 0.00 0.00 0.00 0.00
0.00 0.00 0.00 0.00 0.00 0.00 0.00 0.00 0.00 0.00 0.00 0.00 0.00 0.00 0.00 0.00 0.00 0.00 0.00 0.00 0.00 0.00 0.00 0.00 0.00 0.00 0.00 0.00 0.00 0.00 0.00 0.00 0.00 0.00 0.00 0.00 0.00 0.00 0.00 0.00 0.00 0.00 0.00 0.00 0.00
0.00 0.00 0.00 0.00 0.00 0.00 0.00 0.00 0.00 0.00 0.00 0.00 0.00 0.00 0.00 0.00 0.00 0.00 0.00 0.00 0.00 0.00 0.00 0.00 0.00 0.00 0.00 0.00 0.00 0.00 0.00 0.00 0.00 0.00 0.00 0.00 0.00 0.00 0.00 0.00 0.00 0.00 0.00 0.00 0.00
0.00 0.00 0.00 0.00 0.00 0.00 0.00 0.00 0.00 0.00 0.00 0.00 0.00 0.00 0.00 0.00 0.00 0.00 0.00 0.00 0.00 0.00 0.00 0.00 0.00 0.00 0.00 0.00 0.00 0.00 0.00 0.00 0.00 0.00 0.00 0.00 0.00 0.00 0.00 0.00 0.00 0.00 0.00 0.00 0.00
0.00 0.00 0.00 0.00 0.00 0.00 0.00 0.00 0.00 0.00 0.00 0.00 0.00 0.00 0.00 0.00 0.00 0.00 0.00 0.00 0.00 0.00 0.00 0.00 0.00 0.00 0.00 0.00 0.00 0.00 0.00 0.00 0.00 0.00 0.00 0.00 0.00 0.00 0.00 0.00 0.00 0.00 0.00 0.00 0.00
0.00 0.00 0.00 0.00 0.00 0.00 0.00 0.00 0.00 0.00 0.00 0.00 0.00 0.00 0.00 0.00 0.00 0.00 0.00 0.00 0.00 0.00 0.00 0.00 0.00 0.00 0.00 0.00 0.00 0.00 0.00 0.00 0.00 0.00 0.01 0.00 0.00 0.00 0.00 0.00 0.00 0.00 0.00 0.00 0.00
0.02 0.00 0.00 0.00 0.00 0.00 0.00 0.00 0.00 0.00 0.00 0.00 0.00 0.00 0.00 0.00 0.00 0.00 0.00 0.00 0.00 0.00 0.00 0.00 0.00 0.00 0.00 0.00 0.00 0.00 0.00 0.00 0.00 0.00 0.00 0.00 0.00 0.00 0.00 0.00 0.01 0.00 0.00 0.00 0.00
0.06 0.04 0.01 0.00 0.00 0.00 0.00 0.00 0.00 0.00 0.00 0.00 0.00 0.00 0.00 0.00 0.00 0.00 0.00 0.00 0.00 0.00 0.00 0.00 0.00 0.00 0.00 0.00 0.00 0.00 0.00 0.00 0.00 0.00 0.00 0.00 0.00 0.00 0.00 0.00 0.00 0.00 0.00 0.02 0.01
0.21 0.11 0.02 0.00 0.01 0.00 0.00 0.00 0.00 0.00 0.00 0.00 0.00 0.00 0.00 0.00 0.00 0.00 0.00 0.00 0.00 0.00 0.00 0.00 0.00 0.00 0.00 0.00 0.00 0.00 0.00 0.00 0.00 0.00 0.00 0.00 0.00 0.00 0.00 0.00 0.00 0.02 0.05 0.03 0.01
0.13 0.16 0.08 0.02 0.06 0.01 0.00 0.00 0.00 0.00 0.00 0.00 0.00 0.00 0.00 0.00 0.00 0.00 0.00 0.00 0.00 0.00 0.00 0.00 0.00 0.00 0.00 0.00 0.00 0.00 0.00 0.00 0.00 0.00 0.00 0.01 0.00 0.00 0.00 0.00 0.00 0.04 0.04 0.04 0.03
0.16 0.14 0.14 0.09 0.05 0.00 0.00 0.00 0.00 0.00 0.00 0.00 0.00 0.00 0.00 0.00 0.00 0.00 0.00 0.00 0.00 0.00 0.00 0.00 0.00 0.00 0.00 0.00 0.00 0.00 0.00 0.00 0.00 0.00 0.00 0.00 0.00 0.00 0.00 0.00 0.01 0.02 0.02 0.07 0.05
0.10 0.12 0.05 0.05 0.02 0.00 0.01 0.02 0.00 0.00 0.00 0.00 0.00 0.00 0.00 0.00 0.00 0.00 0.00 0.00 0.00 0.00 0.00 0.00 0.00 0.00 0.00 0.00 0.00 0.00 0.00 0.00 0.00 0.00 0.00 0.00 0.00 0.00 0.00 0.00 0.01 0.02 0.03 0.06 0.03
0.10 0.03 0.02 0.01 0.00 0.01 0.02 0.01 0.00 0.00 0.00 0.00 0.00 0.00 0.00 0.00 0.00 0.00 0.00 0.00 0.00 0.00 0.00 0.00 0.00 0.00 0.00 0.00 0.00 0.00 0.00 0.00 0.00 0.00 0.00 0.00 0.00 0.00 0.00 0.00 0.00 0.01 0.04 0.07 0.04
0.08 0.05 0.03 0.05 0.03 0.05 0.04 0.00 0.00 0.02 0.02 0.00 0.00 0.00 0.00 0.00 0.00 0.00 0.00 0.00 0.00 0.00 0.00 0.00 0.00 0.00 0.00 0.00 0.00 0.00 0.00 0.00 0.00 0.00 0.00 0.00 0.00 0.00 0.00 0.00 0.01 0.03 0.02 0.06 0.07
MSLP
1021.02 1020.71 1020.48 1020.05 1019.79 1019.35 1018.91 1018.59 1018.32 1018.05 1017.81 1017.47 1017.08 1016.73 1016.45 1016.23 1015.58 1014.96 1015.14 1016.21 1015.49 1014.90 1014.20 1012.94 1012.60 1012.24 1011.98 1011.47 1011.35 1010.88 1009.79 1008.54 1008.21 1008.14 1008.28 1009.38 1009.57 1009.28 1009.45 1009.00 1008.19 1008.26 1007.83 1007.71 1008.47
1021.05 1020.89 1020.53 1020.16 1019.77 1019.37 1018.93 1018.65 1018.36 1018.04 1017.78 1017.48 1017.11 1016.81 1016.44 1016.26 1015.68 1015.25 1016.30 1015.87 1015.36 1014.88 1013.87 1013.01 1012.27 1012.06 1011.60 1011.48 1011.34 1010.62 1009.58 1009.00 1009.81 1009.97 1010.31 1010.48 1010.50 1010.10 1009.65 1008.91 1008.26 1007.79 1007.34 1008.01 1008.78
1021.13 1020.94 1020.57 1020.21 1019.74 1019.34 1018.97 1018.68 1018.33 1018.00 1017.73 1017.34 1017.05 1016.74 1016.53 1016.24 1015.52 1015.63 1015.97 1015.71 1015.30 1014.72 1013.93 1013.59 1012.95 1012.19 1011.80 1011.64 1011.71 1010.91 1010.22 1010.71 1010.63 1011.52 1011.97 1011.52 1010.95 1010.42 1010.18 1009.00 1008.50 1008.17 1008.30 1008.90 1009.19
1021.22 1021.00 1020.64 1020.17 1019.74 1019.34 1018.94 1018.70 1018.38 1017.98 1017.63 1017.24 1016.97 1016.67 1016.53 1015.93 1015.95 1015.90 1016.10 1015.70 1015.29 1014.48 1013.59 1013.24 1012.84 1012.19 1011.84 1011.88 1012.36 1012.00 1011.73 1011.78 1011.81 1012.28 1012.49 1011.95 1011.72 1010.86 1010.13 1009.16 1008.98 1008.85 1009.03 1009.03 1008.70
1021.28 1021.03 1020.64 1020.16 1019.66 1019.30 1018.93 1018.64 1018.30 1017.90 1017.57 1017.14 1016.86 1016.58 1016.50 1015.70 1016.38 1016.34 1016.20 1015.72 1014.90 1014.42 1013.87 1013.50 1013.09 1012.76 1012.45 1012.75 1012.81 1012.48 1012.42 1012.67 1012.79 1013.07 1012.84 1012.61 1011.77 1010.90 1009.59 1009.20 1008.96 1009.08 1009.21 1009.00 1008.80
1021.29 1021.05 1020.58 1020.11 1019.58 1019.26 1018.90 1018.58 1018.15 1017.76 1017.47 1017.07 1016.70 1016.44 1015.93 1016.06 1016.86 1016.59 1016.41 1015.83 1015.51 1014.83 1014.47 1014.05 1014.10 1013.79 1013.54 1013.59 1013.41 1013.45 1013.19 1012.85 1012.97 1013.07 1012.93 1012.78 1011.36 1010.78 1008.76 1008.76 1009.21 1009.28 1008.99 1008.68 1008.50
1021.28 1020.97 1020.45 1020.03 1019.53 1019.16 1018.84 1018.40 1018.03 1017.63 1017.33 1017.07 1016.73 1016.04 1015.62 1017.01 1016.90 1016.68 1016.47 1016.33 1016.13 1015.70 1015.05 1015.09 1014.70 1014.06 1014.20 1014.02 1014.33 1013.80 1013.15 1012.19 1012.80 1012.87 1012.65 1012.82 1010.29 1009.58 1008.63 1008.64 1008.97 1008.75 1008.45 1008.38 1008.45
1021.15 1020.82 1020.34 1019.97 1019.44 1019.14 1018.75 1018.28 1017.92 1017.57 1017.26 1016.99 1016.79 1016.00 1016.13 1016.96 1016.77 1016.72 1016.48 1016.16 1016.12 1016.03 1015.78 1015.56 1015.25 1014.77 1014.68 1014.77 1014.13 1013.27 1012.99 1011.99 1011.68 1012.58 1012.59 1012.82 1010.15 1008.53 1008.57 1008.44 1008.02 1007.92 1007.83 1007.98 1008.33
1021.00 1020.66 1020.22 1019.81 1019.43 1019.11 1018.62 1018.18 1017.88 1017.48 1017.21 1017.01 1016.68 1016.05 1016.36 1016.82 1016.70 1016.88 1016.74 1016.46 1016.12 1015.90 1015.73 1015.55 1015.20 1014.96 1014.41 1014.02 1013.57 1013.13 1012.87 1012.53 1012.38 1012.32 1012.92 1012.59 1010.61 1008.99 1008.39 1007.70 1007.44 1007.47 1007.55 1007.86 1008.16
1020.88 1020.54 1020.11 1019.69 1019.33 1018.90 1018.41 1018.00 1017.66 1017.25 1016.86 1016.61 1016.45 1016.57 1016.73 1017.14 1017.18 1017.05 1016.68 1016.61 1016.09 1015.62 1015.39 1015.20 1014.97 1014.45 1014.77 1014.37 1014.70 1014.57 1014.02 1013.44 1013.03 1012.54 1012.51 1011.93 1010.19 1008.43 1007.64 1007.11 1007.06 1007.15 1007.47 1007.90 1007.92
1020.72 1020.45 1020.03 1019.67 1019.24 1018.86 1018.16 1017.60 1017.99 1017.54 1017.17 1017.50 1017.61 1017.49 1017.54 1017.54 1017.38 1016.68 1016.62 1016.33 1015.82 1015.36 1015.10 1015.46 1015.08 1015.81 1016.51 1016.73 1016.75 1016.42 1015.53 1014.23 1013.21 1013.00 1012.89 1011.46 1009.96 1008.16 1007.14 1006.86 1006.81 1006.98 1007.29 1007.49 1007.79
1020.56 1020.34 1020.00 1019.65 1019.25 1018.94 1018.41 1018.22 1019.32 1019.58 1018.64 1018.31 1018.16 1018.01 1018.20 1018.26 1017.34 1017.01 1016.58 1016.07 1015.72 1015.59 1015.58 1015.66 1016.21 1017.37 1017.64 1017.50 1017.20 1016.50 1015.49 1014.38 1013.52 1013.22 1013.36 1011.36 1009.09 1007.61 1006.68 1006.64 1006.85 1006.97 1007.15 1007.49 1007.82
1020.45 1020.34 1020.00 1019.67 1019.29 1018.95 1019.09 1019.74 1019.95 1019.56 1018.53 1018.50 1018.46 1018.34 1018.59 1018.59 1018.04 1017.89 1017.52 1016.98 1016.57 1016.12 1016.29 1016.26 1017.57 1018.00 1018.05 1017.58 1017.40 1016.65 1015.86 1015.33 1015.04 1013.73 1012.68 1011.81 1008.30 1006.25 1006.02 1006.80 1007.09 1007.42 1007.62 1007.92 1007.95
1020.37 1020.34 1020.01 1019.62 1019.82 1019.38 1019.46 1019.97 1020.03 1019.79 1018.85 1018.66 1018.38 1018.79 1018.76 1018.52 1018.29 1018.49 1018.26 1017.94 1016.99 1017.04 1017.15 1017.32 1017.94 1018.34 1018.30 1017.93 1018.11 1016.89 1016.44 1016.07 1015.42 1014.66 1013.05 1012.47 1009.78 1007.13 1006.36 1006.59 1006.52 1007.01 1007.49 1007.75 1007.92
1020.22 1020.30 1020.07 1019.81 1019.60 1019.64 1020.03 1020.14 1020.03 1019.89 1019.41 1018.94 1018.47 1018.92 1018.80 1018.56 1018.88 1018.43 1018.70 1017.57 1017.59 1017.68 1017.79 1018.13 1018.20 1018.30 1018.40 1018.42 1018.68 1017.47 1016.78 1016.26 1015.64 1014.98 1014.11 1012.11 1011.52 1007.49 1006.40 1006.22 1006.55 1007.06 1007.38 1007.96 1008.28
1019.93 1020.16 1020.20 1019.91 1019.68 1020.36 1020.31 1020.11 1020.06 1020.06 1019.15 1018.94 1018.70 1018.77 1018.53 1018.64 1018.69 1018.54 1018.41 1018.15 1018.43 1018.05 1018.07 1018.30 1019.10 1019.05 1018.83 1018.77 1018.80 1018.22 1016.67 1015.61 1015.62 1015.19 1014.09 1012.28 1011.72 1008.16 1007.05 1007.40 1007.35 1007.63 1008.16 1008.43 1008.70
1019.77 1020.20 1020.31 1020.21 1020.24 1020.47 1020.38 1019.77 1020.45 1019.68 1019.26 1019.43 1019.23 1019.18 1019.11 1019.05 1018.86 1018.95 1018.61 1018.32 1018.65 1018.36 1018.06 1018.21 1018.72 1019.24 1019.40 1018.90 1018.54 1018.20 1017.21 1016.01 1015.76 1015.05 1013.53 1012.77 1011.69 1008.69 1007.80 1007.80 1008.36 1008.58 1008.83 1009.10 1008.98
1019.78 1020.35 1020.80 1020.86 1020.82 1020.63 1020.20 1020.01 1020.54 1019.31 1018.98 1019.33 1019.60 1019.77 1019.64 1019.91 1019.73 1019.30 1019.16 1019.13 1019.51 1019.52 1018.81 1018.85 1018.48 1019.23 1019.73 1019.76 1019.66 1019.33 1019.31 1018.71 1017.91 1015.98 1014.13 1012.82 1010.90 1008.33 1008.04 1008.57 1008.88 1009.46 1009.88 1009.76 1009.31
1019.52 1020.46 1020.91 1021.08 1021.23 1020.89 1020.29 1020.91 1019.58 1019.23 1019.50 1019.35 1019.87 1020.16 1020.45 1020.36 1020.31 1019.83 1019.69 1019.74 1020.26 1020.51 1020.28 1019.79 1019.10 1019.48 1019.92 1020.22 1020.38 1019.91 1019.83 1020.04 1019.39 1017.46 1015.91 1012.23 1009.93 1008.06 1008.28 1008.25 1008.87 1009.67 1009.98 1009.95 1009.78
1019.41 1020.37 1021.24 1021.55 1021.45 1021.00 1020.91 1020.41 1019.77 1019.55 1019.67 1019.59 1019.78 1020.21 1020.59 1020.98 1020.69 1020.17 1020.31 1020.57 1021.00 1021.51 1021.51 1021.10 1020.67 1019.74 1020.04 1020.53 1020.58 1020.58 1020.84 1020.42 1020.10 1018.30 1015.62 1012.11 1010.24 1008.06 1008.08 1008.43 1009.23 1009.49 1010.14 1010.23 1010.18
1019.39 1020.62 1021.48 1021.64 1021.44 1021.34 1021.10 1020.35 1019.88 1019.88 1019.89 1019.72 1019.75 1020.28 1020.73 1021.20 1021.45 1020.78 1020.55 1021.32 1021.12 1022.14 1022.36 1021.74 1022.10 1020.40 1020.22 1019.86 1019.53 1020.51 1020.71 1020.91 1020.64 1019.53 1017.52 1014.14 1010.29 1008.90 1008.97 1008.95 1009.60 1010.11 1010.81 1010.75 1010.59
1019.52 1021.04 1021.63 1021.84 1021.98 1021.96 1021.07 1020.16 1020.00 1019.96 1020.26 1020.09 1019.97 1020.10 1020.70 1021.10 1021.64 1021.32 1020.77 1021.18 1021.53 1022.35 1022.94 1022.55 1022.69 1021.10 1019.61 1019.85 1020.11 1020.12 1020.33 1020.57 1020.63 1019.64 1018.54 1016.90 1011.94 1009.62 1009.14 1009.66 1010.66 1011.21 1011.42 1011.51 1011.38
1019.78 1020.99 1021.77 1021.98 1021.87 1021.84 1021.07 1020.49 1020.23 1020.13 1020.03 1020.17 1020.01 1019.92 1021.12 1021.39 1022.01 1021.76 1021.45 1022.02 1022.16 1022.37 1023.46 1023.27 1023.15 1021.96 1020.33 1020.59 1020.45 1020.16 1020.07 1020.45 1020.97 1021.08 1019.19 1017.56 1011.53 1009.48 1009.90 1010.62 1011.52 1011.88 1011.91 1011.95 1011.66
1019.54 1020.77 1021.96 1022.21 1021.39 1020.81 1020.65 1020.26 1019.94 1020.02 1019.98 1020.07 1020.15 1020.41 1020.89 1021.36 1021.90 1021.94 1021.81 1022.50 1022.70 1022.68 1023.84 1023.72 1023.40 1022.61 1021.52 1020.25 1020.28 1019.96 1019.79 1020.05 1020.89 1020.67 1018.79 1016.19 1012.63 1011.41 1011.56 1011.89 1012.20 1012.42 1012.44 1012.37 1012.21
1017.64 1018.28 1018.85 1020.47 1020.39 1020.08 1019.85 1019.62 1019.52 1019.71 1020.30 1020.29 1020.23 1019.78 1019.73 1020.82 1021.58 1021.63 1021.70 1022.51 1022.83 1023.27 1023.90 1023.87 1023.54 1022.93 1021.84 1020.99 1020.45 1019.43 1019.16 1019.45 1019.56 1019.32 1019.05 1014.88 1015.02 1013.26 1013.21 1013.04 1013.09 1013.21 1013.04 1012.71 1012.49
1016.22 1017.29 1018.64 1018.97 1018.34 1019.69 1019.36 1018.87 1018.97 1019.40 1019.89 1019.88 1019.57 1018.91 1019.35 1019.59 1019.80 1020.41 1021.19 1021.73 1022.14 1023.38 1024.03 1024.08 1023.70 1023.36 1021.57 1020.50 1020.01 1018.68 1017.84 1017.86 1018.23 1018.48 1017.86 1016.71 1015.37 1013.68 1013.46 1013.46 1013.61 1013.86 1013.72 1013.34 1013.17
1014.93 1015.98 1015.48 1017.86 1018.10 1018.70 1017.40 1017.53 1017.94 1018.80 1019.46 1019.46 1019.26 1019.32 1019.51 1019.37 1020.04 1020.35 1021.00 1021.26 1021.99 1022.78 1023.88 1024.19 1024.25 1024.06 1021.66 1020.59 1019.45 1017.27 1014.75 1015.31 1015.86 1016.15 1016.27 1015.71 1013.72 1013.29 1013.43 1013.85 1014.37 1014.66 1014.56 1014.16 1013.89
Thickness
5606 5607 5607 5609 5610 5612 5614 5616 5618 5619 5622 5625 5627 5630 5632 5634 5639 5643 5639 5631 5637 5640 5644 5652 5651 5651 5650 5649 5650 5653 5645 5652 5661 5664 5664 5656 5648 5661 5661 5658 5667 5665 5667 5674 5671
5603 5602 5604 5606 5608 5609 5612 5614 5616 5618 5620 5623 5626 5629 5632 5634 5638 5640 5631 5633 5637 5640 5645 5648 5650 5650 5648 5646 5647 5649 5652 5659 5651 5650 5644 5644 5644 5647 5649 5653 5658 5662 5672 5669 5661
5600 5599 5601 5603 5606 5608 5610 5612 5615 5618 5620 5624 5626 5629 5631 5633 5638 5634 5632 5634 5637 5640 5645 5644 5646 5648 5643 5645 5640 5648 5649 5643 5647 5638 5631 5632 5636 5644 5637 5642 5651 5651 5650 5648 5647
5596 5597 5598 5601 5603 5606 5609 5610 5613 5616 5620 5623 5626 5628 5630 5635 5636 5633 5631 5633 5636 5640 5645 5644 5645 5644 5644 5640 5634 5631 5633 5632 5632 5628 5622 5626 5627 5629 5633 5641 5646 5645 5643 5640 5643
5593 5595 5597 5599 5603 5604 5607 5609 5612 5616 5618 5623 5626 5628 5631 5635 5626 5627 5628 5631 5636 5639 5639 5639 5639 5638 5636 5630 5629 5628 5626 5621 5619 5613 5615 5615 5618 5622 5631 5638 5641 5637 5633 5633 5634
5590 5592 5595 5598 5601 5603 5606 5608 5612 5616 5618 5621 5625 5628 5633 5628 5621 5623 5624 5628 5628 5633 5632 5633 5628 5629 5625 5621 5621 5616 5614 5616 5612 5609 5609 5602 5613 5613 5632 5633 5624 5622 5623 5625 5626
5587 5590 5594 5597 5601 5603 5605 5609 5612 5615 5618 5619 5622 5627 5630 5617 5618 5619 5620 5620 5620 5622 5624 5621 5623 5626 5619 5616 5610 5610 5612 5622 5609 5606 5604 5597 5619 5610 5624 5620 5611 5610 5612 5613 5611
5585 5588 5593 5596 5600 5601 5605 5608 5611 5614 5617 5618 5619 5624 5621 5615 5615 5615 5616 5618 5617 5616 5616 5615 5616 5615 5611 5606 5610 5613 5610 5613 5618 5602 5598 5589 5604 5621 5616 5608 5604 5603 5603 5599 5594
5583 5586 5590 5594 5597 5599 5603 5607 5609 5612 5614 5616 5618 5621 5617 5614 5613 5610 5610 5611 5612 5613 5612 5612 5612 5609 5614 5613 5613 5614 5601 5601 5597 5600 5586 5580 5588 5598 5603 5601 5594 5590 5586 5579 5574
5579 5583 5587 5591 5594 5597 5601 5604 5607 5610 5613 5614 5616 5616 5611 5606 5606 5605 5608 5607 5608 5611 5610 5609 5608 5612 5604 5604 5591 5584 5584 5586 5582 5589 5582 5574 5581 5590 5590 5586 5577 5571 5563 5555 5552
5575 5579 5583 5587 5590 5593 5599 5605 5605 5608 5606 5601 5599 5601 5600 5601 5601 5607 5605 5605 5608 5611 5607 5600 5604 5586 5577 5571 5567 5562 5564 5570 5581 5576 5560 5563 5563 5569 5574 5567 5561 5555 5548 5543 5537
5571 5574 5579 5582 5585 5588 5592 5597 5585 5585 5597 5590 5591 5594 5591 5590 5600 5601 5603 5607 5606 5601 5599 5599 5587 5570 5563 5562 5559 5561 5564 5568 5571 5563 5540 5546 5549 5555 5561 5558 5553 5548 5543 5537 5529
5565 5568 5573 5576 5580 5583 5583 5578 5575 5578 5597 5588 5584 5586 5584 5585 5589 5589 5590 5592 5592 5595 5586 5589 5571 5561 5557 5560 5554 5556 5555 5549 5533 5539 5533 5521 5553 5568 5564 5549 5543 5535 5529 5521 5515
5560 5561 5566 5570 5573 5576 5578 5570 5570 5571 5590 5588 5586 5581 5580 5581 5585 5579 5579 5581 5587 5582 5576 5575 5562 5553 5552 5553 5541 5543 5541 5530 5518 5513 5518 5518 5521 5552 5556 5545 5543 5533 5521 5512 5503
5554 5555 5559 5562 5567 5572 5567 5564 5564 5566 5587 5580 5582 5573 5574 5579 5572 5579 5571 5582 5578 5571 5569 5565 5558 5553 5551 5542 5529 5533 5529 5517 5513 5508 5510 5524 5503 5547 5556 5545 5536 5526 5514 5500 5489
5549 5549 5550 5554 5558 5554 5556 5559 5560 5565 5584 5568 5573 5573 5576 5573 5572 5572 5572 5572 5562 5564 5561 5557 5538 5539 5541 5531 5520 5517 5527 5526 5516 5511 5506 5521 5507 5534 5539 5525 5522 5514 5501 5489 5478
5542 5541 5542 5545 5553 5546 5548 5559 5560 5569 5561 5566 5568 5566 5568 5566 5568 5563 5566 5566 5565 5568 5566 5562 5549 5533 5523 5527 5523 5519 5511 5527 5523 5519 5524 5512 5504 5523 5530 5522 5506 5496 5486 5473 5463
5534 5532 5532 5534 5536 5539 5545 5551 5556 5559 5561 5550 5554 5555 5567 5549 5554 5557 5560 5561 5544 5544 5557 5554 5560 5536 5516 5511 5503 5497 5483 5488 5487 5513 5512 5511 5495 5526 5526 5509 5499 5483 5468 5457 5449
5528 5523 5523 5525 5525 5530 5544 5525 5561 5559 5546 5550 5545 5538 5542 5542 5545 5553 5551 5553 5536 5526 5540 5546 5551 5521 5508 5498 5492 5488 5487 5476 5458 5475 5460 5510 5522 5531 5515 5509 5496 5475 5458 5441 5429
5519 5515 5513 5512 5515 5523 5514 5544 5540 5546 5541 5547 5561 5536 5554 5531 5546 5549 5543 5534 5524 5514 5511 5515 5514 5521 5505 5491 5486 5477 5471 5469 5461 5465 5475 5515 5513 5520 5511 5500 5483 5468 5447 5430 5416
5511 5506 5503 5504 5507 5515 5517 5529 5524 5531 5535 5547 5543 5529 5534 5529 5524 5532 5535 5517 5522 5504 5501 5505 5492 5521 5498 5502 5508 5476 5467 5453 5454 5461 5468 5472 5517 5516 5501 5494 5467 5457 5435 5414 5400
5499 5495 5492 5492 5492 5489 5507 5515 5523 5523 5520 5526 5534 5533 5528 5516 5514 5524 5536 5524 5517 5503 5486 5494 5481 5495 5522 5496 5482 5476 5464 5463 5454 5467 5459 5447 5476 5508 5504 5490 5464 5443 5419 5402 5386
5484 5477 5477 5481 5487 5492 5494 5507 5513 5514 5517 5519 5525 5530 5508 5509 5520 5508 5518 5505 5504 5501 5475 5480 5479 5493 5510 5487 5476 5471 5471 5463 5444 5428 5432 5437 5504 5522 5503 5480 5458 5433 5415 5395 5380
5471 5473 5461 5465 5472 5494 5495 5500 5502 5511 5514 5514 5513 5510 5503 5499 5495 5502 5508 5494 5492 5494 5475 5475 5471 5475 5520 5516 5479 5473 5474 5468 5436 5431 5451 5460 5480 5487 5473 5455 5443 5427 5413 5390 5375
5475 5479 5478 5472 5477 5485 5495 5505 5505 5499 5500 5504 5501 5514 5516 5499 5492 5493 5504 5489 5485 5482 5474 5474 5463 5459 5459 5465 5465 5466 5461 5459 5449 5438 5432 5487 5446 5453 5449 5444 5433 5422 5409 5392 5380
5469 5471 5463 5474 5487 5479 5481 5495 5502 5495 5492 5500 5502 5518 5519 5514 5523 5502 5495 5495 5492 5477 5470 5470 5467 5456 5449 5467 5459 5457 5468 5467 5455 5445 5443 5444 5443 5468 5465 5452 5436 5420 5407 5392 5381
5466 5468 5488 5466 5472 5474 5500 5501 5503 5494 5491 5501 5504 5511 5508 5511 5502 5503 5497 5500 5492 5476 5464 5460 5456 5444 5487 5458 5458 5473 5497 5494 5476 5464 5450 5448 5479 5468 5460 5444 5432 5416 5404 5393 5381